Wind_Speed
6 6 9 9 9 9 10 10 9 13 15 14 15 19 16 16 19 12 12 20 18 18 18 19 18 19 20 21 20 19 17 18 20 19 17 18 17 17 18 19 20 21 23
8 14 13 12 11 11 12 12 19 20 15 15 14 16 17 16 14 17 14 16 22 23 23 21 22 21 21 21 22 23 24 23 22 22 22 20 19 19 20 20 20 21 22
15 16 14 12 11 13 17 19 19 13 14 15 16 16 16 16 15 15 17 14 15 19 24 24 25 25 25 25 24 24 24 24 24 23 23 24 23 22 21 21 22 24 23
7 10 9 11 14 18 19 13 12 15 16 17 17 17 18 19 19 17 15 18 16 15 17 25 28 28 28 27 27 26 26 26 25 25 24 24 25 25 24 23 23 24 25
5 7 11 13 15 15 14 13 12 14 17 18 18 21 21 22 22 21 18 14 13 14 16 18 27 27 30 30 30 30 29 29 28 27 28 27 25 25 26 26 24 24 25
9 10 13 14 14 9 10 12 15 15 17 18 20 23 21 22 20 18 15 14 15 14 13 16 18 17 24 30 30 30 31 30 30 31 31 29 26 27 28 27 27 26 25
12 12 11 12 12 12 17 19 18 19 21 18 20 21 21 20 15 15 16 17 15 17 19 19 18 20 20 23 24 24 30 32 31 30 31 33 32 27 29 31 29 29 28
13 12 13 10 14 16 17 17 19 17 16 15 16 21 22 22 21 12 18 19 19 20 20 21 22 22 22 20 21 26 22 28 32 33 31 31 33 33 29 30 32 30 30
12 14 15 20 21 20 18 16 12 11 13 14 14 17 18 20 23 23 18 22 19 20 21 21 21 20 20 20 20 19 24 28 30 30 33 32 30 32 33 30 30 34 32
16 19 22 25 23 20 15 12 11 12 10 14 18 16 16 19 22 25 22 21 22 21 23 22 21 21 21 22 22 21 24 27 28 32 31 32 30 28 30 33 30 33 33
15 17 18 19 19 17 14 16 11 9 11 18 17 16 14 14 16 18 24 24 23 20 21 20 22 21 22 22 21 22 29 30 27 28 30 30 29 26 24 26 31 33 34
17 18 20 19 18 15 13 10 13 13 16 13 10 10 12 14 15 17 20 23 24 25 22 23 22 22 24 24 24 25 28 32 29 27 26 28 28 24 23 25 27 30 33
18 19 20 19 17 15 13 16 14 16 11 10 11 11 11 13 15 18 21 26 27 29 28 25 25 25 26 27 27 26 28 30 28 26 23 24 26 23 22 22 25 26 27
18 20 19 17 14 13 13 15 12 14 12 11 11 12 14 16 17 19 22 24 29 31 31 31 28 29 29 27 29 33 29 25 27 29 22 23 23 21 21 21 23 26 24
18 19 18 14 13 12 14 14 16 17 14 14 14 15 16 18 20 21 22 23 25 32 36 35 35 31 30 29 29 30 28 25 26 28 25 23 19 19 19 19 25 21 21
19 18 17 16 15 17 18 17 20 17 16 16 17 18 19 21 22 22 22 23 25 29 38 37 36 32 30 30 28 28 27 28 26 26 26 25 17 16 15 18 24 26 25
18 18 17 16 17 19 23 21 21 20 15 16 17 18 20 22 22 23 24 26 28 29 35 43 33 31 29 28 26 25 23 24 21 26 24 24 9 12 13 13 16 22 24
18 18 17 16 17 19 22 23 18 13 14 18 19 20 21 23 24 25 26 27 29 30 30 37 32 30 27 27 28 26 24 21 21 21 20 21 18 7 8 11 11 16 22
18 17 17 17 17 19 20 16 12 12 15 17 15 17 22 24 25 25 25 27 27 26 24 28 33 28 27 24 25 23 22 21 21 18 19 15 12 14 14 13 12 13 17
19 17 16 17 18 16 13 12 12 13 14 11 14 17 22 21 21 22 24 23 23 22 23 26 28 25 24 23 21 20 20 17 18 18 15 13 15 17 15 13 16 15 15
18 17 17 16 14 11 13 14 11 10 11 15 17 19 18 20 29 22 18 19 19 20 20 22 25 23 23 21 20 20 21 18 19 14 13 15 14 12 10 11 13 16 15
18 16 16 16 13 11 20 15 11 10 15 16 18 17 17 18 16 21 19 20 16 20 23 24 25 25 25 22 18 19 19 16 16 13 7 12 10 9 12 12 16 17 16
17 14 14 12 12 9 12 10 15 16 17 16 15 15 16 15 19 17 18 19 21 20 22 22 24 23 24 22 20 20 19 18 17 15 14 10 11 12 12 13 16 16 15
14 13 13 11 8 9 13 16 16 19 16 13 14 14 15 16 16 20 18 19 19 19 20 21 20 22 22 21 20 18 19 20 19 19 16 18 15 14 12 12 15 15 11
14 13 12 10 8 9 14 15 20 19 14 15 13 13 15 14 16 17 18 20 19 19 18 21 23 23 20 21 21 18 19 18 20 16 16 19 18 16 15 14 12 15 11
13 11 11 10 13 12 16 18 19 16 14 14 13 13 16 20 20 17 17 17 18 18 20 21 18 17 16 16 15 15 17 18 18 15 12 12 11 11 11 10 10 11 16
Wind_Direction
243 256 265 270 278 290 299 307 317 321 319 322 319 319 316 316 312 309 306 304 300 299 296 295 293 291 291 288 287 284 280 279 279 282 285 284 276 265 259 257 256 254 250
280 277 270 271 273 281 298 315 309 312 313 316 312 313 309 305 302 298 294 298 300 298 299 297 296 293 288 286 287 285 281 280 273 271 273 276 278 274 263 257 257 255 252
248 261 269 278 281 293 307 309 319 322 315 312 309 308 305 300 298 297 294 287 292 303 295 298 301 300 297 292 284 282 285 281 274 269 266 267 266 272 272 262 252 250 251
270 279 276 271 287 298 311 321 320 319 310 309 307 304 299 298 297 298 289 287 285 292 302 294 294 296 294 292 289 286 282 283 284 276 268 263 262 261 265 268 259 251 248
254 261 274 287 306 313 315 319 319 319 314 307 305 303 297 295 295 290 280 284 292 292 292 294 291 293 289 286 286 287 285 282 281 282 275 267 262 258 259 260 264 255 249
285 291 296 301 310 320 321 317 316 309 311 304 302 303 298 298 291 285 277 290 294 299 306 308 309 300 297 289 285 285 285 286 284 277 278 274 267 257 253 252 253 258 248
304 305 311 316 318 316 308 310 309 307 305 297 307 301 303 305 292 284 287 296 292 302 306 306 312 306 306 304 305 303 287 290 288 284 277 273 270 265 255 252 248 248 250
296 307 307 316 312 313 311 303 305 303 299 301 310 311 308 300 297 282 289 291 292 297 303 302 306 310 310 308 305 299 308 296 291 290 284 277 270 266 261 253 250 246 247
309 314 313 312 311 313 310 299 295 299 298 302 309 315 315 305 301 293 284 293 294 297 300 302 304 308 310 310 314 303 296 293 295 291 287 282 276 267 261 256 251 247 243
306 310 310 312 312 311 302 295 290 296 304 304 307 303 293 293 297 300 290 289 295 298 301 302 300 308 310 311 311 310 302 301 299 292 287 286 278 274 264 256 250 247 242
315 313 309 306 303 300 290 295 281 290 302 304 302 297 289 291 292 294 299 300 297 296 296 297 299 303 304 302 306 303 296 304 303 296 287 285 283 275 274 265 256 245 244
311 308 305 302 295 287 277 278 285 296 300 293 288 289 292 297 301 301 301 301 300 300 298 299 299 296 299 301 301 299 298 296 301 300 292 285 283 273 269 260 254 243 244
317 314 309 301 289 279 266 274 289 301 278 274 279 288 293 298 302 300 300 298 298 297 298 297 298 298 299 298 296 293 291 298 300 295 296 280 278 269 261 262 251 240 228
319 316 311 299 280 267 254 287 297 291 276 277 283 290 297 302 301 300 298 298 299 297 297 299 299 299 297 294 287 289 296 294 290 292 290 287 276 270 261 253 251 248 232
322 319 316 302 281 260 271 288 300 290 276 278 285 292 298 301 299 297 295 292 293 299 297 299 301 302 299 295 293 291 289 283 279 282 280 277 274 269 264 260 254 237 240
326 322 314 301 281 280 280 288 292 288 270 275 287 290 294 301 299 296 295 293 292 292 293 296 299 300 299 297 298 296 292 283 270 273 279 271 265 271 273 264 259 263 250
323 318 311 298 283 276 283 282 284 291 267 274 289 292 296 302 300 296 295 293 292 292 291 292 296 299 298 297 295 298 293 284 270 261 265 271 279 271 269 271 264 260 258
318 314 310 303 293 291 285 286 288 275 266 280 289 296 298 301 297 296 296 293 291 290 288 288 296 297 295 297 296 292 295 279 264 263 262 261 257 268 295 275 282 270 256
316 313 309 302 296 289 297 294 279 269 277 288 285 295 300 301 299 296 294 294 292 289 286 286 292 296 296 297 296 289 294 283 264 261 272 283 294 279 273 284 291 296 268
315 311 305 301 297 296 292 286 277 279 286 287 298 300 302 301 299 298 297 295 293 289 289 288 291 294 296 298 292 295 292 294 268 263 253 252 271 279 285 282 281 290 279
310 303 303 299 296 295 290 285 281 281 290 301 302 302 302 295 303 306 303 298 294 294 293 293 292 292 295 293 294 294 292 288 291 276 264 258 266 266 274 295 295 284 291
309 305 300 288 290 292 299 289 275 295 302 307 306 306 307 307 307 308 317 310 301 295 294 293 290 290 291 290 296 297 294 291 288 282 278 264 249 259 265 266 271 280 293
310 308 301 290 295 273 297 288 299 305 308 308 308 310 311 312 316 305 305 308 306 300 297 294 292 291 289 286 285 287 288 290 281 273 284 287 270 272 266 269 270 268 291
301 301 297 292 280 265 294 300 308 311 312 310 311 312 313 313 313 301 310 312 310 305 299 292 290 292 293 294 287 285 283 282 282 271 265 268 269 271 273 262 274 254 277
294 289 283 273 264 264 295 301 312 313 311 316 317 316 310 318 304 312 317 311 311 307 302 303 300 297 300 285 281 277 277 274 272 268 253 257 262 266 265 262 258 253 236
285 283 276 268 265 268 288 305 314 316 314 319 321 319 318 314 320 322 318 315 313 313 311 311 312 309 300 293 290 274 269 265 262 279 259 243 247 248 261 243 242 238 227
Height
1586 1587 1586 1585 1583 1582 1580 1579 1577 1575 1573 1570 1568 1566 1564 1562 1559 1559 1558 1552 1551 1549 1548 1547 1546 1545 1543 1541 1541 1541 1540 1539 1537 1536 1535 1532 1531 1531 1531 1533 1532 1531 1533
1586 1586 1585 1584 1581 1580 1578 1577 1575 1572 1571 1568 1567 1563 1560 1558 1556 1554 1554 1551 1546 1544 1543 1542 1541 1540 1540 1538 1536 1535 1535 1534 1533 1531 1530 1530 1529 1528 1527 1526 1526 1526 1528
1583 1583 1580 1580 1579 1577 1575 1573 1571 1570 1569 1566 1564 1562 1559 1556 1553 1550 1548 1547 1545 1540 1538 1536 1535 1534 1533 1532 1532 1530 1528 1527 1527 1526 1525 1525 1525 1524 1524 1523 1523 1523 1523
1580 1580 1579 1577 1576 1574 1572 1569 1568 1567 1566 1563 1560 1558 1556 1553 1550 1546 1543 1540 1539 1537 1534 1529 1529 1528 1527 1525 1524 1523 1523 1521 1520 1520 1519 1518 1518 1519 1519 1519 1519 1518 1517
1578 1577 1576 1574 1572 1570 1568 1566 1565 1563 1562 1559 1556 1554 1551 1547 1545 1542 1539 1536 1533 1530 1528 1524 1522 1522 1519 1518 1517 1516 1515 1515 1514 1512 1511 1512 1511 1511 1511 1512 1512 1512 1512
1576 1575 1572 1571 1569 1568 1566 1564 1562 1561 1558 1554 1550 1548 1545 1542 1539 1537 1535 1532 1530 1526 1524 1521 1518 1517 1512 1510 1509 1508 1507 1506 1506 1505 1504 1504 1504 1504 1504 1505 1506 1506 1507
1572 1571 1569 1568 1566 1565 1562 1560 1558 1557 1554 1551 1546 1543 1540 1537 1534 1533 1531 1529 1527 1524 1521 1517 1515 1511 1508 1504 1503 1500 1499 1498 1497 1496 1496 1496 1495 1496 1496 1497 1499 1501 1501
1570 1569 1567 1566 1563 1561 1559 1556 1553 1551 1550 1547 1544 1540 1534 1533 1531 1528 1527 1525 1522 1519 1517 1514 1510 1507 1503 1500 1498 1495 1493 1489 1489 1488 1488 1487 1487 1487 1488 1489 1490 1492 1494
1567 1566 1564 1562 1559 1557 1555 1551 1548 1546 1545 1544 1541 1538 1532 1529 1527 1526 1523 1521 1518 1515 1512 1510 1507 1503 1500 1496 1493 1491 1488 1484 1482 1480 1480 1480 1479 1479 1479 1480 1482 1483 1485
1564 1562 1560 1557 1554 1551 1549 1548 1545 1542 1540 1540 1537 1535 1532 1530 1526 1519 1518 1515 1513 1511 1508 1506 1502 1498 1495 1491 1487 1485 1481 1478 1476 1474 1472 1471 1472 1471 1471 1472 1474 1475 1478
1561 1558 1555 1552 1549 1547 1544 1542 1540 1538 1537 1535 1533 1530 1528 1525 1523 1521 1514 1511 1509 1507 1505 1502 1498 1495 1492 1489 1483 1482 1476 1472 1470 1468 1467 1465 1464 1464 1464 1465 1465 1467 1469
1559 1556 1552 1548 1545 1542 1539 1537 1535 1534 1533 1531 1529 1527 1525 1523 1520 1517 1513 1508 1505 1502 1500 1497 1494 1491 1488 1482 1478 1476 1472 1467 1464 1463 1461 1459 1458 1457 1457 1457 1457 1458 1461
1554 1550 1547 1544 1541 1538 1535 1532 1531 1530 1528 1527 1526 1524 1522 1519 1517 1514 1511 1506 1501 1497 1494 1492 1489 1485 1482 1477 1474 1470 1465 1462 1459 1458 1456 1454 1452 1451 1450 1450 1451 1451 1452
1549 1544 1541 1538 1536 1533 1531 1528 1528 1527 1525 1523 1522 1520 1518 1516 1513 1510 1508 1504 1497 1492 1488 1485 1483 1479 1475 1472 1467 1463 1460 1458 1455 1452 1451 1448 1447 1445 1443 1443 1444 1444 1445
1544 1540 1536 1534 1532 1529 1527 1524 1524 1523 1521 1519 1518 1516 1514 1511 1509 1506 1503 1501 1496 1488 1480 1478 1475 1473 1468 1464 1461 1457 1454 1452 1450 1447 1445 1444 1443 1441 1439 1438 1438 1438 1439
1538 1535 1532 1530 1528 1526 1523 1521 1520 1517 1515 1515 1514 1511 1509 1507 1504 1501 1498 1495 1492 1487 1475 1474 1469 1466 1462 1457 1454 1450 1446 1444 1442 1441 1441 1439 1438 1437 1435 1434 1434 1433 1434
1534 1530 1527 1525 1522 1520 1517 1516 1513 1510 1510 1510 1509 1507 1504 1502 1499 1496 1493 1489 1485 1482 1474 1462 1464 1460 1455 1451 1447 1444 1440 1438 1437 1434 1434 1434 1433 1432 1432 1431 1430 1429 1429
1529 1525 1522 1519 1517 1515 1513 1510 1507 1506 1506 1505 1504 1502 1499 1497 1494 1491 1487 1483 1479 1475 1470 1460 1457 1454 1450 1446 1442 1438 1435 1432 1431 1430 1426 1427 1428 1428 1428 1427 1426 1425 1424
1524 1520 1517 1515 1512 1509 1505 1504 1503 1503 1502 1501 1499 1496 1494 1491 1487 1484 1480 1476 1472 1468 1464 1458 1451 1449 1444 1441 1436 1433 1430 1426 1425 1423 1422 1424 1424 1424 1424 1423 1422 1421 1420
1518 1515 1513 1510 1507 1504 1503 1501 1500 1499 1498 1496 1493 1491 1488 1484 1480 1476 1472 1469 1465 1461 1458 1453 1447 1443 1440 1436 1433 1429 1425 1422 1420 1419 1419 1420 1421 1420 1420 1420 1419 1417 1415
1513 1511 1508 1505 1502 1500 1497 1496 1496 1495 1494 1491 1488 1485 1481 1476 1471 1466 1464 1462 1459 1456 1452 1448 1443 1439 1435 1432 1429 1426 1422 1420 1416 1415 1415 1416 1417 1416 1417 1416 1415 1413 1412
1508 1505 1503 1501 1498 1497 1493 1493 1492 1492 1489 1486 1483 1479 1475 1471 1468 1462 1459 1457 1454 1451 1448 1443 1439 1434 1431 1428 1425 1422 1420 1417 1414 1413 1411 1412 1412 1413 1414 1414 1412 1410 1408
1503 1501 1499 1496 1494 1492 1490 1489 1489 1487 1484 1481 1477 1474 1470 1467 1464 1460 1457 1453 1449 1446 1442 1439 1434 1430 1426 1423 1421 1419 1417 1414 1412 1411 1410 1410 1410 1410 1411 1411 1409 1407 1405
1498 1496 1495 1493 1491 1488 1487 1486 1484 1482 1479 1476 1472 1469 1466 1463 1460 1455 1452 1448 1445 1442 1438 1434 1429 1425 1421 1418 1416 1415 1413 1411 1409 1407 1408 1407 1407 1407 1406 1407 1406 1405 1404
1494 1492 1490 1488 1487 1485 1483 1482 1480 1477 1474 1471 1468 1465 1461 1458 1454 1449 1447 1444 1440 1436 1433 1427 1423 1418 1415 1412 1411 1410 1409 1407 1404 1402 1402 1402 1403 1403 1404 1404 1404 1402 1403
1488 1487 1485 1483 1482 1481 1479 1477 1475 1473 1470 1467 1465 1462 1458 1452 1449 1446 1442 1439 1435 1431 1426 1422 1417 1414 1411 1408 1406 1405 1404 1402 1401 1399 1398 1399 1399 1400 1399 1399 1400 1400 1401